Location: Augustenthal
(51.7167°N, 10.2833°E)
Time: 04:42:22
(UTC+00:00)

Cosmos 1378 - Pass Details

Date: 18 May 2021
Orbit: 491 x 498 km, 82.5° (Epoch: 14 June)

Event Time Altitude Azimuth Distance (km) Brightness Sun altitude
Exits shadow 22:38:55 44° 203° (SSW) 699 3.4 -18.1°
Maximum altitude 22:40:01 78° 281° (W) 514 3.1 -18.1°
Drops below altitude 10° 22:43:46 10° 8° (N) 1,711 7.0 -18.2°
Sets 22:45:54 0° 10° (N) 2,601 8.2 -18.2°
